Total_Precipitation_Accumulation
0.01 0.00 0.00 0.00 0.00 0.00 0.00 0.00 0.00 0.00 0.00 0.00 0.00 0.00 0.00 0.00 0.00 0.00 0.00 0.00 0.00 0.00 0.00 0.00 0.00 0.00 0.00 0.00 0.00 0.00 0.00 0.00 0.00 0.00 0.00 0.00 0.00 0.00 0.00 0.00 0.00 0.00 0.00 0.00 0.00
0.01 0.01 0.01 0.01 0.00 0.00 0.00 0.00 0.00 0.00 0.00 0.00 0.00 0.00 0.00 0.00 0.00 0.00 0.00 0.00 0.00 0.00 0.00 0.00 0.00 0.00 0.00 0.00 0.00 0.00 0.00 0.00 0.00 0.00 0.00 0.00 0.00 0.00 0.00 0.00 0.00 0.00 0.00 0.00 0.00
0.01 0.01 0.01 0.01 0.01 0.01 0.00 0.00 0.00 0.00 0.00 0.00 0.00 0.00 0.00 0.00 0.00 0.00 0.00 0.00 0.00 0.00 0.00 0.00 0.00 0.00 0.00 0.00 0.00 0.00 0.00 0.00 0.00 0.00 0.00 0.00 0.00 0.00 0.00 0.00 0.00 0.00 0.00 0.00 0.00
0.03 0.02 0.02 0.02 0.02 0.01 0.01 0.00 0.00 0.00 0.00 0.00 0.00 0.00 0.00 0.00 0.00 0.00 0.00 0.00 0.00 0.00 0.00 0.00 0.00 0.00 0.00 0.00 0.00 0.00 0.00 0.00 0.00 0.00 0.00 0.00 0.00 0.00 0.00 0.00 0.00 0.00 0.00 0.00 0.00
0.06 0.05 0.03 0.02 0.03 0.03 0.02 0.01 0.01 0.01 0.01 0.01 0.00 0.00 0.00 0.00 0.00 0.00 0.00 0.00 0.00 0.00 0.00 0.00 0.00 0.00 0.00 0.00 0.00 0.00 0.00 0.00 0.00 0.00 0.00 0.00 0.00 0.00 0.00 0.00 0.00 0.00 0.00 0.00 0.00
0.07 0.06 0.06 0.04 0.03 0.04 0.04 0.03 0.02 0.02 0.02 0.04 0.04 0.01 0.00 0.00 0.00 0.00 0.00 0.00 0.00 0.00 0.00 0.00 0.00 0.00 0.00 0.00 0.00 0.00 0.00 0.00 0.00 0.00 0.00 0.00 0.00 0.00 0.00 0.00 0.00 0.00 0.00 0.00 0.00
0.21 0.16 0.12 0.11 0.08 0.06 0.05 0.03 0.04 0.08 0.10 0.12 0.13 0.03 0.00 0.00 0.00 0.00 0.00 0.00 0.00 0.00 0.00 0.00 0.00 0.00 0.00 0.00 0.00 0.00 0.00 0.00 0.00 0.00 0.00 0.00 0.00 0.00 0.00 0.00 0.00 0.00 0.00 0.00 0.00
0.28 0.23 0.23 0.19 0.17 0.15 0.10 0.08 0.08 0.08 0.14 0.26 0.31 0.13 0.03 0.00 0.00 0.00 0.00 0.00 0.00 0.00 0.00 0.00 0.00 0.00 0.00 0.00 0.00 0.00 0.00 0.00 0.00 0.00 0.00 0.00 0.00 0.00 0.00 0.00 0.00 0.00 0.00 0.00 0.00
0.41 0.38 0.25 0.25 0.22 0.20 0.19 0.15 0.14 0.20 0.29 0.30 0.40 0.27 0.05 0.00 0.00 0.00 0.00 0.00 0.00 0.00 0.00 0.00 0.00 0.00 0.00 0.00 0.00 0.00 0.00 0.00 0.00 0.00 0.00 0.00 0.00 0.00 0.00 0.00 0.00 0.00 0.00 0.00 0.00
0.47 0.45 0.48 0.38 0.33 0.29 0.28 0.32 0.34 0.47 0.59 0.64 0.45 0.17 0.02 0.00 0.00 0.00 0.00 0.00 0.00 0.00 0.00 0.00 0.00 0.00 0.00 0.00 0.00 0.00 0.00 0.00 0.00 0.00 0.00 0.00 0.00 0.00 0.00 0.00 0.00 0.00 0.00 0.00 0.00
0.56 0.49 0.48 0.49 0.55 0.57 0.64 0.86 0.94 0.88 0.68 0.33 0.17 0.05 0.00 0.00 0.00 0.00 0.00 0.00 0.00 0.00 0.00 0.00 0.00 0.00 0.00 0.00 0.00 0.00 0.00 0.00 0.00 0.00 0.00 0.00 0.00 0.00 0.00 0.00 0.00 0.00 0.00 0.00 0.00
0.83 0.81 0.65 0.63 0.73 0.95 1.00 0.97 0.58 0.31 0.31 0.09 0.01 0.00 0.00 0.00 0.00 0.00 0.00 0.00 0.00 0.00 0.00 0.00 0.00 0.00 0.00 0.00 0.00 0.00 0.00 0.00 0.00 0.00 0.00 0.00 0.00 0.00 0.00 0.00 0.00 0.00 0.00 0.00 0.00
0.50 0.79 1.04 0.96 1.08 1.39 1.39 0.80 0.31 0.26 0.40 0.20 0.05 0.01 0.00 0.00 0.00 0.00 0.00 0.00 0.00 0.00 0.00 0.00 0.00 0.00 0.00 0.00 0.00 0.00 0.00 0.00 0.00 0.00 0.00 0.00 0.00 0.00 0.00 0.00 0.00 0.00 0.00 0.00 0.00
0.32 0.49 0.85 1.44 2.05 1.61 1.42 0.57 0.42 0.62 0.91 0.39 0.06 0.03 0.01 0.00 0.01 0.00 0.00 0.00 0.00 0.00 0.00 0.00 0.00 0.00 0.00 0.00 0.00 0.00 0.00 0.00 0.00 0.00 0.00 0.00 0.00 0.00 0.00 0.00 0.00 0.00 0.00 0.00 0.00
0.29 0.51 0.85 1.49 1.59 1.26 0.88 0.44 0.83 1.63 1.98 0.41 0.02 0.00 0.00 0.01 0.01 0.00 0.00 0.00 0.00 0.00 0.00 0.00 0.00 0.00 0.00 0.00 0.00 0.00 0.00 0.00 0.00 0.00 0.00 0.00 0.00 0.00 0.00 0.00 0.00 0.00 0.00 0.00 0.00
0.20 0.37 0.89 1.30 1.48 0.84 0.38 0.70 1.89 3.69 2.85 0.30 0.01 0.01 0.01 0.00 0.00 0.00 0.00 0.00 0.00 0.00 0.00 0.00 0.00 0.00 0.00 0.00 0.00 0.00 0.00 0.00 0.00 0.00 0.00 0.00 0.00 0.00 0.00 0.00 0.00 0.00 0.00 0.00 0.00
0.20 0.32 0.76 0.92 1.35 0.98 1.00 2.04 3.92 4.35 1.79 0.28 0.03 0.01 0.01 0.01 0.00 0.00 0.01 0.01 0.02 0.04 0.05 0.00 0.00 0.00 0.00 0.00 0.00 0.00 0.00 0.02 0.02 0.01 0.00 0.00 0.00 0.00 0.00 0.00 0.00 0.00 0.00 0.00 0.00
0.24 0.39 0.73 0.80 0.76 1.27 1.97 3.27 4.08 2.64 0.93 0.16 0.05 0.05 0.03 0.01 0.01 0.01 0.01 0.02 0.02 0.01 0.00 0.00 0.00 0.00 0.00 0.00 0.00 0.00 0.00 0.02 0.03 0.00 0.00 0.00 0.00 0.00 0.00 0.00 0.00 0.00 0.00 0.00 0.00
0.24 0.35 0.72 0.90 1.10 1.79 2.85 4.27 3.40 1.35 0.28 0.07 0.05 0.18 0.18 0.08 0.03 0.04 0.02 0.03 0.01 0.01 0.00 0.00 0.00 0.00 0.00 0.00 0.00 0.00 0.00 0.00 0.02 0.05 0.07 0.00 0.00 0.00 0.00 0.00 0.00 0.00 0.00 0.00 0.00
0.25 0.33 0.56 0.64 1.23 2.03 2.94 3.41 2.15 0.59 0.10 0.06 0.17 0.17 0.16 0.11 0.12 0.12 0.11 0.02 0.00 0.00 0.00 0.00 0.00 0.00 0.00 0.00 0.00 0.00 0.00 0.02 0.13 0.21 0.09 0.00 0.00 0.00 0.00 0.00 0.00 0.00 0.00 0.00 0.00
0.36 0.46 0.42 0.49 1.35 2.40 2.97 2.42 1.30 0.29 0.18 0.22 0.14 0.25 0.16 0.18 0.33 0.28 0.15 0.03 0.00 0.00 0.00 0.00 0.04 0.01 0.00 0.00 0.00 0.00 0.00 0.00 0.04 0.03 0.02 0.01 0.00 0.00 0.00 0.00 0.00 0.00 0.00 0.00 0.00
0.54 0.66 0.41 0.53 1.56 2.28 2.30 1.60 0.73 0.19 0.23 0.48 0.36 0.19 0.19 0.20 0.27 0.36 0.39 0.16 0.09 0.01 0.02 0.01 0.09 0.06 0.01 0.00 0.00 0.01 0.00 0.01 0.05 0.08 0.02 0.01 0.00 0.00 0.00 0.00 0.00 0.00 0.00 0.00 0.00
0.76 0.42 0.39 0.79 1.37 1.49 1.37 1.24 0.67 0.22 0.24 0.63 0.52 0.22 0.18 0.15 0.50 0.27 0.15 0.16 0.16 0.24 0.17 0.14 0.30 0.36 0.35 0.17 0.05 0.05 0.01 0.00 0.01 0.02 0.02 0.01 0.00 0.00 0.00 0.00 0.00 0.00 0.00 0.00 0.00
0.97 0.72 0.65 1.03 0.89 0.78 0.78 0.87 0.74 0.33 0.14 0.30 0.33 0.14 0.23 0.42 0.46 0.35 0.16 0.12 0.04 0.12 0.16 0.31 0.25 0.22 0.18 0.10 0.04 0.02 0.01 0.01 0.05 0.09 0.02 0.01 0.00 0.00 0.00 0.00 0.00 0.00 0.00 0.00 0.00
1.68 0.86 0.45 0.72 0.86 0.73 0.53 0.51 0.35 0.34 0.29 0.16 0.26 0.19 0.19 0.57 0.68 0.36 0.13 0.07 0.05 0.05 0.11 0.36 0.53 0.27 0.16 0.05 0.03 0.01 0.01 0.01 0.06 0.02 0.03 0.00 0.00 0.00 0.00 0.00 0.00 0.00 0.00 0.00 0.00
1.40 0.64 0.32 0.11 0.21 0.38 0.45 0.50 0.20 0.15 0.27 0.19 0.17 0.15 0.18 0.31 0.32 0.45 0.30 0.16 0.16 0.09 0.17 0.46 0.79 0.30 0.25 0.14 0.13 0.07 0.02 0.04 0.03 0.01 0.02 0.00 0.00 0.00 0.00 0.01 0.00 0.00 0.00 0.00 0.00
0.69 0.25 0.39 0.32 0.13 0.22 0.28 0.26 0.12 0.09 0.15 0.09 0.06 0.11 0.23 0.23 0.19 0.24 0.32 0.47 0.38 0.23 0.27 0.50 0.95 0.78 0.66 0.29 0.31 0.48 0.13 0.02 0.02 0.00 0.01 0.03 0.02 0.00 0.01 0.02 0.00 0.00 0.00 0.00 0.00